Tracking 17631 objects as of 4-May-2016
HD Live streaming from Space Station
objects crossing your sky now

COSMOS 1626

Track COSMOS 1626 now!
10-day predictions
COSMOS 1626 is classified as:


NORAD ID: 15494
Int'l Code: 1985-009A
Perigee: 506.9 km
Apogee: 511.9 km
Inclination: 82.5 °
Period: 94.7 minutes
Semi major axis: 6880 km
RCS: 7.281 m2 (large)
Launch date: January 24, 1985
Source: Commonwealth of Independent States (former USSR) (CIS)
Launch site: PLESETSK MISSILE AND SPACE COMPLEX (PKMTR)
Your satellite tracking list
Your tracking list is empty





NASA's NSSDC Master Catalog

Two Line Element Set (TLE):
1 15494U 85009A   16124.91001037  .00003105  00000-0  13790-3 0  9992
2 15494  82.4780 298.7527 0003672  62.5962  95.1010 15.21189479706536
Source of the keplerian elements: AFSPC

N2YO: 880